Regional Weather Roundup
Issued by NWS

Home | Current Version | Previous Version | Graphics & Text | Print | Product List | Glossary On
Versions: 1 2 3 4 5 6 7 8 9 10 11 12 13 14 15 16 17 18 19 20 21 22 23 24 25 26 27 28 29 30 31 32 33 34 35 36 37 38 39 40 41 42 43 44 45 46 47 48 49 50
000
ASUS43 KOAX 280010
RWRNE

WEATHER ROUNDUP FOR NEBRASKA
NATIONAL WEATHER SERVICE OMAHA NE
700 PM CDT THU APR 27 2017

NOTES: SATELLITE DATA IS BEING USED TO AUGMENT CLOUD COVER ABOVE
       12000 FEET.
       "FAIR" INDICATES FEW OR NO CLOUDS BELOW 12,000 FEET WITH NO
       SIGNIFICANT WEATHER AND/OR OBSTRUCTIONS TO VISIBILITY.

  * THESE STATIONS DO NOT REPORT WEATHER SUCH AS RAIN...SNOW OR FOG.

NEZ001>004-019>022-054>056-280100-
NEBRASKA PANHANDLE

CITY           SKY/WX    TMP DP  RH WIND       PRES   REMARKS
SCOTTSBLUFF    CLOUDY    44  41  89 SE15      29.55S
6HR MIN TEMP:  43; 6HR MAX TEMP:  50; 6HR PCP:  0.19;

ALLIANCE       LGT RAIN  43  40  89 SE7       29.59R
6HR MIN TEMP:  43; 6HR MAX TEMP:  51; 6HR PCP:  0.08;

CHADRON        RAIN      43  39  86 E10       29.61R FOG
6HR MIN TEMP:  43; 6HR MAX TEMP:  51; 6HR PCP:  0.13;

KIMBALL        CLOUDY    40  39  95 E13       29.57F WCI  33
SIDNEY         RAIN      38  37  97 NW17      29.59R FOG     WCI  28
6HR MIN TEMP:  38; 6HR MAX TEMP:  52; 6HR PCP:  0.25;

$$

NEZ057>060-069>072-079>082-280100-
SOUTHWEST NEBRASKA

CITY           SKY/WX    TMP DP  RH WIND       PRES   REMARKS
NORTH PLATTE   CLOUDY    51  38  60 E15       29.60S
6HR MIN TEMP:  48; 6HR MAX TEMP:  58; 6HR PCP: TRACE;

IMPERIAL       CLOUDY    46  40  79 E18       29.55R
6HR MIN TEMP:  46; 6HR MAX TEMP:  55; 6HR PCP:  0.02;

LEXINGTON      CLOUDY    51  38  60 SE15      29.63R
MCCOOK         CLOUDY    50  42  74 E14G23    29.57R
6HR MIN TEMP:  49; 6HR MAX TEMP:  56; 6HR PCP: TRACE;

OGALLALA       CLOUDY    51  37  57 E17       29.57R
$$

NEZ005>010-023>029-035>040-094-280100-
NORTH CENTRAL NEBRASKA

CITY           SKY/WX    TMP DP  RH WIND       PRES   REMARKS
VALENTINE      CLOUDY    54  29  38 E13       29.64R
6HR MIN TEMP:  50; 6HR MAX TEMP:  57;

AINSWORTH      PTSUNNY   51  35  54 E10       29.65R
BROKEN BOW     CLOUDY    50  36  58 E10       29.64R
6HR MIN TEMP:  46; 6HR MAX TEMP:  54; 6HR PCP: TRACE;

O`NEILL        SUNNY     54  33  45 SE8       29.69R
ORD            LGT RAIN  50  37  61 SE7       29.66R
6HR MIN TEMP:  50; 6HR MAX TEMP:  53; 6HR PCP: TRACE;

THEDFORD       CLOUDY    51  37  57 E14       29.63S
$$

NEZ041-046>049-061>064-073>077-083>087-280100-
SOUTH CENTRAL NEBRASKA

CITY           SKY/WX    TMP DP  RH WIND       PRES   REMARKS
GRAND ISLAND   PTSUNNY   55  38  52 SE12      29.68R
6HR MIN TEMP:  49; 6HR MAX TEMP:  57; 6HR PCP: TRACE;

AURORA         CLOUDY    57  34  41 SE10      29.68S
HASTINGS       CLOUDY    54  37  52 S12G21    29.67R
6HR MIN TEMP:  51; 6HR MAX TEMP:  58;

HEBRON         LGT RAIN  50  44  79 S7        29.71R
HOLDREGE       CLOUDY    48  40  74 SE21      29.64R
KEARNEY *      CLOUDY    54  36  50 S18       29.66R
YORK           CLOUDY    54  36  50 S12       29.70R
$$

NEZ011>018-030>034-042>045-280100-
NORTHEAST NEBRASKA

CITY           SKY/WX    TMP DP  RH WIND       PRES   REMARKS
NORFOLK        SUNNY     52  34  50 NE6       29.69R
6HR MIN TEMP:  43; 6HR MAX TEMP:  54;

ALBION         CLOUDY    55  36  49 SE7       29.69R
BLAIR          MOSUNNY   57  33  39 S3        29.71R
FREMONT        MOSUNNY   57  31  37 CALM      29.71R
TEKAMAH        SUNNY     56  32  40 W6        29.71R
6HR MIN TEMP:  48; 6HR MAX TEMP:  58;

WAYNE          SUNNY     53  37  54 NE3       29.71R
$$

NEZ050>053-065>068-078-088>093-280100-
SOUTHEAST NEBRASKA

CITY           SKY/WX    TMP DP  RH WIND       PRES   REMARKS
LINCOLN        CLOUDY    56  35  45 S12       29.72R
6HR MIN TEMP:  53; 6HR MAX TEMP:  59;

OMAHA EPPLEY   PTSUNNY   58  33  39 NW5       29.71R
6HR MIN TEMP:  48; 6HR MAX TEMP:  59;

BEATRICE       CLOUDY    57  38  49 S5        29.71S
FALLS CITY     CLOUDY    58  40  51 CALM      29.71R
6HR MIN TEMP:  55; 6HR MAX TEMP:  60;

NEBRASKA CITY  CLOUDY    56  29  35 NW3       29.72S
PLATTSMOUTH    CLOUDY    56  27  32 S3        29.72R
$$

NEZ044-045-051>053-067-280100-
OMAHA AREA

CITY           SKY/WX    TMP DP  RH WIND       PRES   REMARKS
OMAHA EPPLEY   PTSUNNY   58  33  39 NW5       29.71R
6HR MIN TEMP:  48; 6HR MAX TEMP:  59;

BLAIR          MOSUNNY   57  33  39 S3        29.71R
FREMONT        MOSUNNY   57  31  37 CALM      29.71R
MILLARD        PTSUNNY   58  36  42 CALM      29.71S
OFFUTT AFB     PTSUNNY   57  33  41 CALM      29.71R
PLATTSMOUTH    CLOUDY    56  27  32 S3        29.72R
WAHOO          MOCLDY    58  31  35 SW5       29.70S
$$




USA.gov is the U.S. government's official web portal to all federal, state and local government web resources and services.